Hourly Weather Cered

Today, 12 June, Saturday

Time Temperature Precipitation Wind Pressure Humidity
00:00 +14°C° 0.1 mm 1 mps 727 mmHg 86%
01:00 +13°C° 0 mm 1 mps 727 mmHg 88%
02:00 +13°C° 0 mm 1 mps 727 mmHg 88%
03:00 +13°C° 0 mm 1 mps 727 mmHg 89%
04:00 +12°C° 0 mm 1 mps 727 mmHg 89%
05:00 +14°C° 0 mm 1 mps 727 mmHg 84%
06:00 +15°C° 0 mm 0 mps 728 mmHg 78%
07:00 +17°C° 0 mm 0 mps 728 mmHg 73%
08:00 +19°C° 0 mm 0 mps 728 mmHg 67%
09:00 +22°C° 0 mm 1 mps 728 mmHg 60%
10:00 +24°C° 0 mm 1 mps 728 mmHg 53%
11:00 +24°C° 0.1 mm 1 mps 728 mmHg 52%
12:00 +25°C° 0.1 mm 2 mps 727 mmHg 50%
13:00 +26°C° 0.1 mm 2 mps 727 mmHg 48%
14:00 +25°C° 0.1 mm 3 mps 727 mmHg 52%
15:00 +25°C° 0.1 mm 3 mps 726 mmHg 55%
16:00 +25°C° 0.1 mm 4 mps 726 mmHg 59%
17:00 +22°C° 0.1 mm 3 mps 726 mmHg 66%
18:00 +21°C° 0.1 mm 3 mps 726 mmHg 73%
19:00 +19°C° 0.1 mm 3 mps 725 mmHg 80%
20:00 +19°C° 0.2 mm 3 mps 725 mmHg 83%
21:00 +18°C° 0.2 mm 2 mps 725 mmHg 85%
22:00 +17°C° 0.2 mm 2 mps 725 mmHg 88%
23:00 +17°C° 0 mm 2 mps 725 mmHg 89%

Tomorrow, 13 June, Sunday

Time Temperature Precipitation Wind Pressure Humidity
00:00 +17°C° 0 mm 3 mps 725 mmHg 90%
01:00 +17°C° 0 mm 4 mps 724 mmHg 91%
02:00 +16°C° 0.1 mm 3 mps 725 mmHg 91%
03:00 +14°C° 0.1 mm 3 mps 725 mmHg 91%
04:00 +13°C° 0.1 mm 3 mps 725 mmHg 90%
05:00 +14°C° 0.1 mm 3 mps 726 mmHg 83%
06:00 +15°C° 0.1 mm 4 mps 726 mmHg 77%
07:00 +15°C° 0.1 mm 4 mps 727 mmHg 70%
08:00 +17°C° 0 mm 4 mps 728 mmHg 62%
09:00 +17°C° 0 mm 5 mps 728 mmHg 53%
10:00 +19°C° 0 mm 5 mps 728 mmHg 45%
11:00 +20°C° 0 mm 5 mps 728 mmHg 42%
12:00 +20°C° 0 mm 5 mps 729 mmHg 39%
13:00 +20°C° 0 mm 5 mps 729 mmHg 36%
14:00 +20°C° 0 mm 5 mps 729 mmHg 38%
15:00 +20°C° 0 mm 5 mps 729 mmHg 40%
16:00 +19°C° 0 mm 5 mps 729 mmHg 42%
17:00 +18°C° 0 mm 4 mps 729 mmHg 47%
18:00 +16°C° 0 mm 3 mps 729 mmHg 53%
19:00 +13°C° 0 mm 3 mps 730 mmHg 59%
20:00 +13°C° 0 mm 2 mps 730 mmHg 63%
21:00 +10°C° 0 mm 2 mps 730 mmHg 67%
22:00 +9°C° 0 mm 1 mps 731 mmHg 71%
23:00 +9°C° 0 mm 1 mps 731 mmHg 74%

Day after tomorrow, 14 June, Monday

Time Temperature Precipitation Wind Pressure Humidity
00:00 +8°C° 0 mm 1 mps 731 mmHg 77%
01:00 +7°C° 0 mm 1 mps 731 mmHg 79%
02:00 +7°C° 0 mm 1 mps 731 mmHg 79%
03:00 +7°C° 0 mm 1 mps 731 mmHg 80%
04:00 +7°C° 0 mm 1 mps 731 mmHg 80%
05:00 +9°C° 0 mm 1 mps 731 mmHg 73%
06:00 +11°C° 0 mm 1 mps 732 mmHg 66%
07:00 +14°C° 0 mm 1 mps 732 mmHg 59%
08:00 +15°C° 0 mm 1 mps 732 mmHg 54%
09:00 +18°C° 0 mm 1 mps 732 mmHg 50%
10:00 +18°C° 0 mm 2 mps 732 mmHg 45%
11:00 +19°C° 0 mm 2 mps 732 mmHg 44%
12:00 +20°C° 0 mm 2 mps 731 mmHg 43%
13:00 +20°C° 0 mm 2 mps 731 mmHg 41%
14:00 +20°C° 0 mm 2 mps 731 mmHg 45%
15:00 +21°C° 0 mm 1 mps 730 mmHg 48%
16:00 +20°C° 0 mm 1 mps 730 mmHg 51%
17:00 +19°C° 0 mm 1 mps 730 mmHg 58%
18:00 +18°C° 0 mm 1 mps 730 mmHg 64%
19:00 +15°C° 0 mm 1 mps 730 mmHg 70%
20:00 +15°C° 0 mm 1 mps 730 mmHg 70%
21:00 +14°C° 0 mm 1 mps 731 mmHg 70%
22:00 +14°C° 0 mm 1 mps 731 mmHg 70%
23:00 +13°C° 0 mm 1 mps 731 mmHg 73%

15 June, Tuesday

Time Temperature Precipitation Wind Pressure Humidity
00:00 +13°C° 0 mm 1 mps 731 mmHg 75%
01:00 +12°C° 0 mm 1 mps 731 mmHg 77%
02:00 +11°C° 0 mm 1 mps 731 mmHg 81%
03:00 +10°C° 0 mm 1 mps 731 mmHg 84%
04:00 +10°C° 0 mm 1 mps 731 mmHg 87%
05:00 +12°C° 0 mm 1 mps 731 mmHg 79%
06:00 +14°C° 0 mm 1 mps 731 mmHg 71%
07:00 +16°C° 0 mm 1 mps 732 mmHg 63%
08:00 +19°C° 0 mm 1 mps 732 mmHg 57%
09:00 +20°C° 0 mm 1 mps 731 mmHg 51%
10:00 +22°C° 0 mm 1 mps 731 mmHg 45%
11:00 +23°C° 0 mm 1 mps 731 mmHg 44%
12:00 +23°C° 0 mm 1 mps 731 mmHg 42%
13:00 +24°C° 0 mm 1 mps 731 mmHg 40%
14:00 +24°C° 0 mm 1 mps 731 mmHg 42%
15:00 +24°C° 0 mm 2 mps 731 mmHg 43%
16:00 +24°C° 0 mm 2 mps 730 mmHg 45%
17:00 +21°C° 0 mm 2 mps 730 mmHg 56%
18:00 +20°C° 0 mm 1 mps 730 mmHg 67%
19:00 +19°C° 0 mm 1 mps 730 mmHg 78%
20:00 +18°C° 0 mm 1 mps 730 mmHg 79%
21:00 +16°C° 0 mm 1 mps 730 mmHg 80%
22:00 +15°C° 0 mm 1 mps 730 mmHg 81%
23:00 +15°C° 0 mm 1 mps 730 mmHg 80%

16 June, Wednesday

Time Temperature Precipitation Wind Pressure Humidity
00:00 +13°C° 0 mm 0 mps 730 mmHg 79%
01:00 +13°C° 0 mm 0 mps 730 mmHg 79%
02:00 +13°C° 0 mm 0 mps 730 mmHg 79%
03:00 +13°C° 0 mm 0 mps 730 mmHg 80%
04:00 +13°C° 0 mm 0 mps 730 mmHg 81%
05:00 +14°C° 0 mm 0 mps 730 mmHg 77%
06:00 +15°C° 0 mm 0 mps 730 mmHg 74%
07:00 +17°C° 0 mm 0 mps 731 mmHg 71%
08:00 +18°C° 0 mm 0 mps 731 mmHg 64%
09:00 +20°C° 0 mm 0 mps 731 mmHg 58%
10:00 +24°C° 0 mm 1 mps 731 mmHg 52%
11:00 +25°C° 0 mm 1 mps 731 mmHg 48%
12:00 +26°C° 0 mm 1 mps 731 mmHg 45%
13:00 +27°C° 0 mm 1 mps 731 mmHg 42%
14:00 +26°C° 0 mm 1 mps 731 mmHg 43%
15:00 +26°C° 0 mm 1 mps 730 mmHg 45%
16:00 +26°C° 0 mm 1 mps 730 mmHg 46%
17:00 +24°C° 0 mm 1 mps 730 mmHg 55%
18:00 +22°C° 0 mm 1 mps 730 mmHg 64%
19:00 +21°C° 0 mm 1 mps 730 mmHg 74%
20:00 +20°C° 0 mm 1 mps 730 mmHg 76%
21:00 +19°C° 0 mm 1 mps 730 mmHg 78%
22:00 +18°C° 0 mm 1 mps 731 mmHg 80%
23:00 +16°C° 0 mm 1 mps 731 mmHg 81%

17 June, Thursday

Time Temperature Precipitation Wind Pressure Humidity
00:00 +16°C° 0 mm 1 mps 731 mmHg 82%
01:00 +14°C° 0 mm 0 mps 730 mmHg 84%
02:00 +15°C° 0 mm 1 mps 730 mmHg 84%
03:00 +15°C° 0 mm 1 mps 730 mmHg 85%
04:00 +14°C° 0 mm 1 mps 730 mmHg 85%
05:00 +16°C° 0 mm 1 mps 731 mmHg 79%
06:00 +19°C° 0 mm 1 mps 731 mmHg 73%
07:00 +21°C° 0 mm 1 mps 731 mmHg 67%
08:00 +23°C° 0 mm 1 mps 732 mmHg 62%
09:00 +25°C° 0 mm 1 mps 732 mmHg 58%
10:00 +26°C° 0 mm 1 mps 732 mmHg 53%
11:00 +27°C° 0 mm 2 mps 732 mmHg 50%
12:00 +28°C° 0 mm 2 mps 731 mmHg 48%
13:00 +28°C° 0 mm 2 mps 731 mmHg 45%
14:00 +28°C° 0 mm 2 mps 731 mmHg 47%
15:00 +28°C° 0 mm 2 mps 731 mmHg 49%
16:00 +28°C° 0 mm 2 mps 731 mmHg 51%
17:00 +26°C° 0 mm 2 mps 731 mmHg 58%
18:00 +24°C° 0 mm 1 mps 731 mmHg 66%
19:00 +21°C° 0 mm 0 mps 731 mmHg 74%
20:00 +21°C° 0 mm 1 mps 731 mmHg 76%
21:00 +20°C° 0 mm 1 mps 731 mmHg 79%
22:00 +19°C° 0 mm 1 mps 731 mmHg 81%
23:00 +19°C° 0 mm 1 mps 731 mmHg 83%
Show more

We Need Your Consent

Meteoprog and our Service Providers may store and access personal data such as cookies, device identifiers or other similar technologies on your device and process such data to personalise content and ads, as well as provide social media features and to analyse the traffic.

  • Store and/or access information on your device

    Cookies, device identifiers or other information can be stored or accessed on your device for the purposes indicated above.

  • Personalised ads and content, ad and content measurement, audience insights, and products development

    Ads and content can be personalised based on a profile. More data can be added to better personalise ads and content. Ad and content performance can be measured. Insights about the audience who saw the ads and content can be derived. Such data can be used to develop or improve user’s experience, systems and software.

By clicking ‘I Agree’ you will allow the use of indicated cookies, device identifiers, web beacons or other similar technologies. Your settings can be changed in the browser on your device.

For certain purposes, legitimate interests may be relied on, rather than consent. You can read more about this in our Privacy and Cookie Policy.